Weather History for McGuire AFB, NJ

Change the Weather History Date:

Tuesday, September 10, 2013

  Actual Average Record
Temperature  
Mean Temperature 75 °F -  
Max Temperature 88 °F 78 °F 91 °F (2001)
Min Temperature 63 °F 58 °F 51 °F (1998)
Cooling Degree Days 10    
Growing Degree Days 25 (Base 50)    
Moisture  
Dew Point 68 °F    
Average Humidity 81    
Maximum Humidity 94    
Minimum Humidity 60    
Precipitation  
Precipitation 0.00 in - - ()
Sea Level Pressure  
Sea Level Pressure 30.14 in    
Wind  
Wind Speed 7 mph (SW)    
Max Wind Speed 14 mph    
Max Gust Speed -    
Visibility 10 miles    
Events      
Averages and records for this station are not official NWS values.
T = Trace of Precipitation, MM = Missing Value Source: NWS Daily Summary

Daily Weather History Graph

Daily Weather History Graph

Search for Another Location

Airport:

Trip Planner

Search our weather history database for the weather conditions in past years. The results will help you decide how hot, cold, wet, or windy it might be!

Date:

Astronomy

Sep. 10, 2013 Rise Set
Actual Time 6:34 AM EDT 7:14 PM EDT
Civil Twilight 6:07 AM EDT 7:42 PM EDT
Nautical Twilight 5:35 AM EDT 8:14 PM EDT
Astronomical Twilight 5:01 AM EDT 8:47 PM EDT
Moon 11:57 AM EDT (9/10) 10:16 PM EDT (9/10)
Length of Visible Light 13h 34m
Length of Day
12h 40m
Waxing Crescent, 28% of the Moon is Illuminated
Sep 10
Waxing Crescent
Sep 12
First Quarter
Sep 19
Full
Sep 26
Last Quarter
Oct 4
New

Hourly Weather History & Observations

Time (EDT) Temp. Heat Index Dew Point Humidity Pressure Visibility Wind Dir Wind Speed Gust Speed Precip Events Conditions
12:58 AM 63.3 °F - 60.8 °F 91% 30.17 in 10.0 mi SSW 2.3 mph - N/A   Overcast
1:58 AM 65.1 °F - 61.7 °F 89% 30.15 in 10.0 mi South 4.6 mph - N/A   Overcast
2:03 AM 64.4 °F - 62.6 °F 94% 30.13 in 10.0 mi South 4.6 mph - N/A   Overcast
2:32 AM 66.2 °F - 62.6 °F 88% 30.14 in 10.0 mi South 5.8 mph - N/A   Overcast
2:58 AM 66.2 °F - 62.4 °F 88% 30.15 in 10.0 mi SSW 5.8 mph - N/A   Overcast
3:58 AM 66.7 °F - 62.8 °F 87% 30.14 in 10.0 mi South 5.8 mph - N/A   Overcast
4:58 AM 67.3 °F - 63.7 °F 88% 30.14 in 10.0 mi SSW 6.9 mph - N/A   Overcast
5:08 AM 68.0 °F - 64.4 °F 88% 30.14 in 10.0 mi SSW 5.8 mph - N/A   Overcast
5:58 AM 67.5 °F - 64.4 °F 90% 30.16 in 10.0 mi SW 3.5 mph - N/A   Overcast
6:39 AM 68.0 °F - 64.4 °F 88% 30.16 in 10.0 mi SSW 6.9 mph - N/A   Overcast
6:58 AM 67.5 °F - 65.1 °F 92% 30.16 in 10.0 mi South 6.9 mph - N/A   Overcast
7:28 AM 68.0 °F - 66.2 °F 94% 30.15 in 10.0 mi SSW 8.1 mph - N/A   Overcast
7:58 AM 69.8 °F - 66.7 °F 90% 30.16 in 10.0 mi SSW 5.8 mph - N/A   Scattered Clouds
7:59 AM 69.8 °F - 66.2 °F 88% 30.15 in 10.0 mi SW 5.8 mph - N/A   Mostly Cloudy
8:05 AM 69.8 °F - 68.0 °F 94% 30.15 in 10.0 mi SSW 8.1 mph - N/A   Mostly Cloudy
8:58 AM 71.6 °F - 68.0 °F 88% 30.17 in 10.0 mi SW 8.1 mph - N/A   Overcast
9:35 AM 73.4 °F - 68.0 °F 83% 30.18 in 10.0 mi WSW 10.4 mph - N/A   Overcast
9:51 AM 75.2 °F - 69.8 °F 83% 30.18 in 10.0 mi WSW 11.5 mph - N/A   Mostly Cloudy
9:58 AM 75.7 °F - 68.9 °F 79% 30.19 in 10.0 mi WSW 8.1 mph - N/A   Mostly Cloudy
10:12 AM 75.2 °F - 69.8 °F 83% 30.18 in 10.0 mi WSW 12.7 mph - N/A   Mostly Cloudy
10:58 AM 76.8 °F - 69.1 °F 77% 30.17 in 10.0 mi WSW 13.8 mph - N/A   Overcast
11:51 AM 80.6 °F 83.9 °F 69.8 °F 70% 30.14 in 10.0 mi West 10.4 mph - N/A   Scattered Clouds
11:58 AM 80.8 °F 84.1 °F 69.8 °F 69% 30.16 in 10.0 mi West 9.2 mph - N/A   Scattered Clouds
12:01 PM 80.6 °F 83.9 °F 69.8 °F 70% 30.15 in 10.0 mi WSW 9.2 mph - N/A   Mostly Cloudy
12:13 PM 80.6 °F 83.9 °F 69.8 °F 70% 30.14 in 10.0 mi West 8.1 mph - N/A   Scattered Clouds
12:58 PM 82.9 °F 87.2 °F 70.5 °F 66% 30.12 in 10.0 mi SW 11.5 mph - N/A   Partly Cloudy
1:58 PM 86.4 °F 92.2 °F 71.2 °F 61% 30.09 in 10.0 mi WSW 10.4 mph - N/A   Clear
2:58 PM 87.3 °F 93.6 °F 72.0 °F 60% 30.09 in 10.0 mi WSW 10.4 mph - N/A   Scattered Clouds
3:58 PM 87.1 °F 93.6 °F 72.1 °F 61% 30.08 in 10.0 mi SW 12.7 mph - N/A   Partly Cloudy
4:58 PM 87.3 °F 94.0 °F 72.5 °F 61% 30.07 in 10.0 mi SW 11.5 mph - N/A   Scattered Clouds
5:58 PM 85.5 °F 91.8 °F 72.3 °F 65% 30.07 in 10.0 mi WSW 13.8 mph - N/A   Clear
6:58 PM 81.7 °F 86.7 °F 72.9 °F 74% 30.08 in 10.0 mi SW 6.9 mph - N/A   Clear
7:58 PM 78.4 °F - 72.7 °F 82% 30.09 in 10.0 mi SSW 6.9 mph - N/A   Clear
8:58 PM 77.4 °F - 72.1 °F 84% 30.11 in 10.0 mi SSW 4.6 mph - N/A   Clear
9:58 PM 75.7 °F - 72.1 °F 89% 30.12 in 10.0 mi SSW 6.9 mph - N/A   Clear
10:58 PM 75.4 °F - 72.0 °F 89% 30.13 in 10.0 mi SSW 9.2 mph - N/A   Clear
11:58 PM 74.5 °F - 71.6 °F 91% 30.13 in 10.0 mi SW 6.9 mph - N/A   Clear